Location: Gu�tanj
(46.5431°N, 14.9692°E)
Time: 16:29:58
(UTC+00:00)

X-37B - Pass Details

Date: 03 October 2021
Orbit: 385 x 389 km, 45.0° (Epoch: 17 October)

Event Time Altitude Azimuth Distance (km) Brightness Sun altitude
Exits shadow 02:25:06 11° 114° (ESE) 1,367 3.8 -27.0°
Drops below altitude 10° 02:25:12 10° 114° (ESE) 1,411 3.9 -27.0°
Sets 02:27:18 0° 109° (ESE) 2,265 5.1 -26.7°
